Terminal Aerodrome Forecast
Issued by NWS Boston, MA

Home | Current Version | Previous Version | Text Only | Print | Product List | Glossary On
Versions: 1 2 3 4 5 6 7 8 9 10 11 12 13 14 15 16 17 18 19 20 21 22 23 24 25 26 27 28 29 30 31 32 33 34 35 36 37 38 39 40 41 42 43 44 45 46
000
FTUS41 KBOX 220323 AAA
TAFPVD
TAF AMD
KPVD 220323Z 2203/2224 19003KT P6SM SCT250
     FM221300 21006KT P6SM FEW008
     FM221500 22007KT P6SM FEW250
     FM222100 21010G17KT P6SM FEW250
     FM222200 21009KT P6SM FEW250=

USA.gov is the U.S. government's official web portal to all federal, state and local government web resources and services.